PGT53XR LTFH-LTFJ

Flight info

Callsign PGT53XR
Flight time 1h 10m
Altitude 34000
Route HAVZA UW71 ILHAN UT79 NAMAN
Aircraft A320/M-SDE3FGHIRWY/LB1

Departure

Time 2026-05-04 16:45
Airport Samsun-Çarşamba Airport (LTFH)

Arrival

Time 2026-05-04 17:55
Airport Istanbul Sabiha Gökçen International Airport (LTFJ)
Time Latitude Longitude Altitude Speed Heading
2026-05-04 16:20 41.25925 36.55421 21 ft 0 kts 223°
2026-05-04 16:30 41.25992 36.55469 22 ft 113 kts 136°
2026-05-04 16:35 41.25953 36.55404 21 ft 0 kts 131°
2026-05-04 16:35 41.25950 36.55427 23 ft 5 kts 82°
2026-05-04 16:36 41.25966 36.55486 23 ft 9 kts 89°
2026-05-04 16:36 41.25888 36.55610 24 ft 6 kts 131°
2026-05-04 16:37 41.25902 36.55696 21 ft 9 kts 46°
2026-05-04 16:37 41.25949 36.55757 24 ft 7 kts 43°
2026-05-04 16:37 41.25967 36.55778 23 ft 0 kts 43°
2026-05-04 16:40 41.25998 36.55941 21 ft 21 kts 130°
2026-05-04 16:41 41.25746 36.56295 9 ft 28 kts 134°
2026-05-04 16:41 41.25336 36.56865 10 ft 31 kts 134°
2026-05-04 16:42 41.24880 36.57502 12 ft 32 kts 133°
2026-05-04 16:43 41.24612 36.57872 12 ft 11 kts 134°
2026-05-04 16:43 41.24529 36.57946 12 ft 5 kts 75°
2026-05-04 16:43 41.24561 36.57940 12 ft 8 kts 315°
2026-05-04 16:44 41.25725 36.56319 12 ft 163 kts 313°
2026-05-04 16:45 41.27337 36.54090 1278 ft 166 kts 315°
2026-05-04 16:46 41.30032 36.50448 2572 ft 217 kts 315°
2026-05-04 16:46 41.32325 36.47262 3517 ft 260 kts 311°
2026-05-04 16:47 41.33264 36.42648 5082 ft 278 kts 259°
2026-05-04 16:47 41.31437 36.38102 6799 ft 284 kts 235°
2026-05-04 16:48 41.28176 36.31446 9531 ft 287 kts 235°
2026-05-04 16:48 41.27102 36.29238 10309 ft 292 kts 234°
2026-05-04 16:49 41.24718 36.24377 10872 ft 335 kts 234°
2026-05-04 16:49 41.22121 36.19073 12235 ft 346 kts 234°
2026-05-04 16:50 41.19489 36.13691 13664 ft 354 kts 234°
2026-05-04 16:50 41.16803 36.08197 14947 ft 360 kts 234°
2026-05-04 16:51 41.14040 36.02588 16214 ft 366 kts 234°
2026-05-04 16:51 41.12617 35.99697 16836 ft 370 kts 235°
2026-05-04 16:51 41.09792 35.93959 18006 ft 378 kts 237°
2026-05-04 16:52 41.07670 35.87491 19063 ft 386 kts 247°
2026-05-04 16:52 41.06689 35.84120 19609 ft 388 kts 246°
2026-05-04 16:53 41.04724 35.77415 20627 ft 393 kts 246°
2026-05-04 16:53 41.01715 35.67213 22104 ft 402 kts 246°
2026-05-04 16:54 41.00713 35.63743 22572 ft 405 kts 247°
2026-05-04 16:55 40.96684 35.49595 24226 ft 416 kts 247°
2026-05-04 16:55 40.94619 35.42424 24928 ft 422 kts 247°
2026-05-04 16:56 40.92528 35.35161 25592 ft 428 kts 247°
2026-05-04 16:56 40.89302 35.24001 26553 ft 439 kts 248°
2026-05-04 16:57 40.88194 35.20187 26842 ft 443 kts 248°
2026-05-04 16:57 40.85972 35.12540 27482 ft 449 kts 248°
2026-05-04 16:58 40.82569 35.00851 28366 ft 459 kts 248°
2026-05-04 16:58 40.81413 34.96909 28649 ft 462 kts 248°
2026-05-04 16:59 40.79091 34.88983 29183 ft 468 kts 248°
2026-05-04 17:00 40.74311 34.72778 30175 ft 479 kts 248°
2026-05-04 17:00 40.70619 34.60502 31103 ft 479 kts 248°
2026-05-04 17:01 40.68147 34.52357 31773 ft 477 kts 248°
2026-05-04 17:01 40.65666 34.44204 32445 ft 476 kts 248°
2026-05-04 17:02 40.63222 34.36169 33141 ft 474 kts 248°
2026-05-04 17:02 40.60761 34.28105 33757 ft 473 kts 248°
2026-05-04 17:03 40.59535 34.24102 33796 ft 471 kts 248°
2026-05-04 17:03 40.55846 34.12123 33801 ft 469 kts 248°
2026-05-04 17:04 40.50954 33.96253 33803 ft 468 kts 248°
2026-05-04 17:05 40.46702 33.80051 33799 ft 469 kts 254°
2026-05-04 17:06 40.45295 33.71737 33803 ft 466 kts 267°
2026-05-04 17:06 40.45266 33.67493 33826 ft 465 kts 276°
2026-05-04 17:07 40.46729 33.57804 33819 ft 462 kts 285°
2026-05-04 17:07 40.48729 33.46891 33826 ft 463 kts 285°
2026-05-04 17:08 40.50737 33.35917 33850 ft 463 kts 285°
2026-05-04 17:09 40.52241 33.27720 33866 ft 464 kts 285°
2026-05-04 17:09 40.53740 33.19467 33869 ft 464 kts 285°
2026-05-04 17:10 40.57466 32.98799 33893 ft 465 kts 286°
2026-05-04 17:11 40.58955 32.90461 33906 ft 465 kts 286°
2026-05-04 17:12 40.61150 32.78073 33916 ft 464 kts 287°
2026-05-04 17:13 40.64796 32.57351 33939 ft 464 kts 287°
2026-05-04 17:14 40.67686 32.40804 33953 ft 464 kts 287°
2026-05-04 17:15 40.69847 32.28379 33976 ft 463 kts 287°
2026-05-04 17:16 40.73217 32.12092 33972 ft 459 kts 294°
2026-05-04 17:17 40.77215 31.96063 33987 ft 459 kts 293°
2026-05-04 17:18 40.81177 31.80054 33983 ft 458 kts 294°
2026-05-04 17:19 40.85138 31.63982 33959 ft 458 kts 294°
2026-05-04 17:20 40.89034 31.48032 33979 ft 458 kts 294°
2026-05-04 17:20 40.91915 31.35945 33985 ft 460 kts 292°
2026-05-04 17:21 40.95504 31.19712 33988 ft 462 kts 292°
2026-05-04 17:22 40.97309 31.11573 33985 ft 462 kts 292°
2026-05-04 17:23 41.00937 30.95168 33998 ft 463 kts 292°
2026-05-04 17:24 41.03484 30.82802 33994 ft 464 kts 291°
2026-05-04 17:25 41.07345 30.66611 33997 ft 458 kts 299°
2026-05-04 17:26 41.12197 30.50977 33623 ft 461 kts 298°
2026-05-04 17:26 41.15837 30.39168 32778 ft 460 kts 298°
2026-05-04 17:27 41.18272 30.31265 31073 ft 468 kts 299°
2026-05-04 17:27 41.20696 30.23350 30031 ft 456 kts 300°
2026-05-04 17:28 41.22271 30.15244 28937 ft 457 kts 283°
2026-05-04 17:29 41.23276 30.02891 27188 ft 444 kts 283°
2026-05-04 17:29 41.22166 29.90661 25536 ft 456 kts 249°
2026-05-04 17:30 41.16341 29.80897 23202 ft 450 kts 229°
2026-05-04 17:31 41.12162 29.75111 22193 ft 417 kts 229°
2026-05-04 17:31 41.06269 29.66935 20836 ft 407 kts 229°
2026-05-04 17:32 41.02384 29.61530 19912 ft 403 kts 229°
2026-05-04 17:33 40.96545 29.53859 19217 ft 380 kts 216°
2026-05-04 17:33 40.94271 29.52197 18988 ft 376 kts 202°
2026-05-04 17:34 40.86618 29.51118 17863 ft 368 kts 178°
2026-05-04 17:34 40.84065 29.51143 17448 ft 367 kts 178°
2026-05-04 17:35 40.76574 29.51180 16289 ft 357 kts 178°
2026-05-04 17:35 40.71649 29.51211 15435 ft 350 kts 178°
2026-05-04 17:35 40.69216 29.51227 15062 ft 346 kts 178°
2026-05-04 17:36 40.66830 29.51243 14690 ft 345 kts 178°
2026-05-04 17:36 40.64409 29.51259 14321 ft 345 kts 178°
2026-05-04 17:36 40.62006 29.51274 13949 ft 345 kts 178°
2026-05-04 17:36 40.59601 29.51291 13601 ft 344 kts 178°
2026-05-04 17:37 40.57250 29.51163 13230 ft 344 kts 187°
2026-05-04 17:37 40.54944 29.50404 12966 ft 339 kts 201°
2026-05-04 17:37 40.52815 29.49116 12631 ft 336 kts 207°
2026-05-04 17:37 40.50734 29.47766 12000 ft 330 kts 207°
2026-05-04 17:38 40.48691 29.46451 11545 ft 324 kts 207°
2026-05-04 17:38 40.46668 29.45152 11130 ft 320 kts 207°
2026-05-04 17:38 40.44666 29.43856 10724 ft 314 kts 211°
2026-05-04 17:38 40.42937 29.42215 10343 ft 306 kts 227°
2026-05-04 17:39 40.40787 29.37590 9557 ft 295 kts 258°
2026-05-04 17:39 40.40465 29.34975 9250 ft 287 kts 272°
2026-05-04 17:39 40.40443 29.32365 8943 ft 283 kts 274°
2026-05-04 17:40 40.40417 29.29819 8594 ft 283 kts 274°
2026-05-04 17:40 40.40385 29.27284 8381 ft 276 kts 274°
2026-05-04 17:40 40.40348 29.24804 8233 ft 266 kts 274°
2026-05-04 17:40 40.40413 29.22442 8103 ft 251 kts 286°
2026-05-04 17:41 40.40701 29.21004 8029 ft 242 kts 296°
2026-05-04 17:41 40.41463 29.19075 8018 ft 237 kts 307°
2026-05-04 17:41 40.42325 29.17232 8014 ft 237 kts 306°
2026-05-04 17:41 40.43184 29.15372 7896 ft 240 kts 306°
2026-05-04 17:42 40.44029 29.13471 7521 ft 242 kts 300°
2026-05-04 17:42 40.44495 29.11343 7275 ft 243 kts 282°
2026-05-04 17:42 40.44445 29.09100 7142 ft 247 kts 271°
2026-05-04 17:42 40.44275 29.06886 6985 ft 246 kts 271°
2026-05-04 17:43 40.44107 29.04648 6845 ft 245 kts 272°
2026-05-04 17:43 40.44248 29.02512 6696 ft 230 kts 297°
2026-05-04 17:43 40.45110 29.00809 6560 ft 220 kts 321°
2026-05-04 17:43 40.46393 28.99785 6448 ft 216 kts 342°
2026-05-04 17:44 40.47863 28.99535 6315 ft 214 kts
2026-05-04 17:44 40.49317 28.99637 6196 ft 216 kts
2026-05-04 17:44 40.50809 28.99738 6075 ft 215 kts
2026-05-04 17:44 40.52295 28.99836 5952 ft 216 kts
2026-05-04 17:45 40.53805 28.99935 5830 ft 216 kts
2026-05-04 17:45 40.55309 29.00036 5712 ft 217 kts
2026-05-04 17:45 40.56825 29.00138 5586 ft 218 kts
2026-05-04 17:45 40.58338 29.00239 5461 ft 217 kts
2026-05-04 17:46 40.59852 29.00338 5344 ft 217 kts
2026-05-04 17:46 40.61364 29.00439 5204 ft 218 kts
2026-05-04 17:46 40.62878 29.00540 5090 ft 218 kts
2026-05-04 17:46 40.64387 29.00641 4970 ft 217 kts
2026-05-04 17:47 40.65875 29.00740 4841 ft 216 kts
2026-05-04 17:47 40.67377 29.00838 4723 ft 216 kts
2026-05-04 17:47 40.68881 29.00936 4598 ft 216 kts
2026-05-04 17:47 40.70385 29.01035 4468 ft 216 kts
2026-05-04 17:48 40.71894 29.01136 4355 ft 216 kts
2026-05-04 17:48 40.73383 29.01237 4228 ft 216 kts
2026-05-04 17:48 40.74843 29.01339 4138 ft 203 kts
2026-05-04 17:48 40.76218 29.01596 4048 ft 198 kts 16°
2026-05-04 17:49 40.77394 29.02502 3897 ft 198 kts 37°
2026-05-04 17:49 40.78255 29.03989 3522 ft 208 kts 52°
2026-05-04 17:49 40.79013 29.05586 3175 ft 204 kts 52°
2026-05-04 17:49 40.79758 29.07122 3009 ft 192 kts 52°
2026-05-04 17:50 40.80431 29.08633 3010 ft 189 kts 56°
2026-05-04 17:50 40.81038 29.10172 3010 ft 188 kts 57°
2026-05-04 17:50 40.81603 29.11675 3016 ft 173 kts 57°
2026-05-04 17:50 40.82103 29.13024 3006 ft 158 kts 57°
2026-05-04 17:51 40.82572 29.14283 2912 ft 149 kts 57°
2026-05-04 17:51 40.83019 29.15486 2756 ft 145 kts 57°
2026-05-04 17:51 40.83467 29.16691 2584 ft 142 kts 56°
2026-05-04 17:51 40.83900 29.17858 2394 ft 141 kts 57°
2026-05-04 17:52 40.84334 29.19028 2197 ft 141 kts 57°
2026-05-04 17:52 40.84761 29.20181 2010 ft 142 kts 57°
2026-05-04 17:52 40.85197 29.21359 1820 ft 142 kts 58°
2026-05-04 17:52 40.85633 29.22536 1619 ft 143 kts 59°
2026-05-04 17:53 40.86063 29.23702 1446 ft 139 kts 59°
2026-05-04 17:53 40.86479 29.24826 1236 ft 138 kts 60°
2026-05-04 17:53 40.86903 29.25973 1044 ft 142 kts 61°
2026-05-04 17:53 40.87336 29.27145 842 ft 142 kts 61°
2026-05-04 17:54 40.87768 29.28315 662 ft 142 kts 62°
2026-05-04 17:54 40.88190 29.29463 458 ft 141 kts 63°
2026-05-04 17:54 40.88608 29.30577 297 ft 139 kts 61°
2026-05-04 17:54 40.88986 29.31574 308 ft 100 kts 67°
2026-05-04 17:55 40.89201 29.32206 304 ft 50 kts 63°
2026-05-04 17:55 40.89322 29.32533 301 ft 35 kts 64°
2026-05-04 17:55 40.89420 29.32746 301 ft 27 kts 49°
2026-05-04 17:55 40.89541 29.32879 308 ft 17 kts 34°
2026-05-04 17:56 40.89623 29.32942 306 ft 8 kts
2026-05-04 17:56 40.89655 29.32903 307 ft 6 kts 286°
2026-05-04 17:56 40.89638 29.32818 307 ft 15 kts 243°
2026-05-04 17:56 40.89577 29.32659 308 ft 22 kts 244°
2026-05-04 17:57 40.89509 29.32470 308 ft 23 kts 244°
2026-05-04 17:57 40.89549 29.32355 307 ft 15 kts 342°
2026-05-04 17:57 40.89656 29.32307 308 ft 16 kts 334°
2026-05-04 17:57 40.89757 29.32242 308 ft 16 kts 334°
2026-05-04 17:58 40.89847 29.32184 311 ft 14 kts 334°
2026-05-04 17:58 40.89934 29.32127 313 ft 14 kts 334°
2026-05-04 17:58 40.89993 29.32089 317 ft 8 kts 334°
2026-05-04 17:58 40.90021 29.32071 319 ft 2 kts 334°
2026-05-04 17:59 40.90038 29.32060 320 ft 4 kts 334°
2026-05-04 17:59 40.90083 29.32055 321 ft 10 kts 20°
2026-05-04 17:59 40.90168 29.32267 319 ft 14 kts 64°
2026-05-04 18:00 40.90209 29.32379 321 ft 13 kts 64°
2026-05-04 18:00 40.90243 29.32473 321 ft 10 kts 64°
2026-05-04 18:00 40.90271 29.32548 320 ft 9 kts 64°
2026-05-04 18:00 40.90309 29.32589 320 ft 6 kts
2026-05-04 18:01 40.90367 29.32561 320 ft 15 kts 335°
2026-05-04 18:01 40.90476 29.32491 320 ft 16 kts 334°
2026-05-04 18:01 40.90561 29.32434 321 ft 11 kts 332°
2026-05-04 18:02 40.90574 29.32305 319 ft 6 kts 244°
2026-05-04 18:02 40.90557 29.32259 319 ft 5 kts 244°
2026-05-04 18:02 40.90543 29.32222 321 ft 4 kts 244°
2026-05-04 18:02 40.90532 29.32192 321 ft 3 kts 244°
2026-05-04 18:03 40.90522 29.32165 320 ft 2 kts 244°
2026-05-04 18:03 40.90518 29.32152 321 ft 1 kts 244°
2026-05-04 18:03 40.90503 29.32114 321 ft 11 kts 244°
2026-05-04 18:03 40.90483 29.32021 321 ft 10 kts 279°
2026-05-04 18:04 40.90531 29.31971 321 ft 10 kts 334°
2026-05-04 18:04 40.90593 29.31929 321 ft 10 kts 326°
2026-05-04 18:04 40.90657 29.31832 321 ft 2 kts 334°
2026-05-04 18:05 40.90667 29.31826 321 ft 2 kts 334°
2026-05-04 18:05 40.90671 29.31823 321 ft 0 kts 335°
2026-05-04 18:05 40.90678 29.31819 321 ft 0 kts 334°